When you browse on this site, cookies collect data to enhance your experience and personalize the content and advertising you see.
Visit our Privacy Policy to learn more. By continuing to use the site, you agree to this use of cookies and data.
  • In Romania
  • List of Countries
  • For 7 days
  • Water Temperature
  • Satellite Maps
  • Weather Map
  • Weather Widgets
  • user-avatar
    Login

    Hourly Weather Newport

    Today, 18 January, Friday

    Time Temperature Precipitation Wind Pressure Humidity
    00:00 +1°C° 0 mm 0 mps 761 mmHg 76%
    01:00 +3°C° 0 mm 1 mps 761 mmHg 74%
    02:00 +3°C° 0 mm 1 mps 760 mmHg 72%
    03:00 +2°C° 0 mm 2 mps 760 mmHg 71%
    04:00 +2°C° 0 mm 3 mps 760 mmHg 69%
    05:00 +1°C° 0 mm 4 mps 760 mmHg 68%
    06:00 +1°C° 0 mm 4 mps 760 mmHg 66%
    07:00 +2°C° 0 mm 5 mps 759 mmHg 65%
    08:00 +2°C° 0 mm 6 mps 759 mmHg 65%
    09:00 +3°C° 0 mm 7 mps 759 mmHg 64%
    10:00 +3°C° 0 mm 7 mps 758 mmHg 62%
    11:00 +4°C° 0 mm 8 mps 758 mmHg 60%
    12:00 +4°C° 0 mm 8 mps 758 mmHg 58%
    13:00 +3°C° 0 mm 9 mps 757 mmHg 59%
    14:00 +3°C° 0 mm 9 mps 757 mmHg 59%
    15:00 +3°C° 0 mm 9 mps 756 mmHg 59%
    16:00 +3°C° 0.1 mm 9 mps 756 mmHg 62%
    17:00 +3°C° 0.1 mm 9 mps 756 mmHg 64%
    18:00 +3°C° 0.1 mm 9 mps 755 mmHg 66%
    19:00 +3°C° 0.1 mm 9 mps 755 mmHg 69%
    20:00 +3°C° 0.1 mm 9 mps 755 mmHg 72%
    21:00 +3°C° 0.1 mm 9 mps 755 mmHg 75%
    22:00 +3°C° 0.4 mm 9 mps 754 mmHg 78%
    23:00 +3°C° 0.4 mm 9 mps 754 mmHg 81%

    Tomorrow, 19 January, Saturday

    Time Temperature Precipitation Wind Pressure Humidity
    00:00 +3°C° 0.4 mm 9 mps 754 mmHg 84%
    01:00 +3°C° 0.7 mm 9 mps 753 mmHg 85%
    02:00 +2°C° 0.7 mm 8 mps 753 mmHg 87%
    03:00 +2°C° 0.7 mm 8 mps 753 mmHg 88%
    04:00 +4°C° 0.3 mm 7 mps 752 mmHg 89%
    05:00 +4°C° 0.3 mm 7 mps 752 mmHg 90%
    06:00 +4°C° 0.3 mm 6 mps 752 mmHg 91%
    07:00 +5°C° 0.1 mm 6 mps 752 mmHg 91%
    08:00 +5°C° 0.1 mm 6 mps 752 mmHg 91%
    09:00 +5°C° 0.1 mm 6 mps 752 mmHg 91%
    10:00 +7°C° 0.2 mm 6 mps 752 mmHg 89%
    11:00 +7°C° 0.2 mm 6 mps 752 mmHg 86%
    12:00 +8°C° 0.2 mm 7 mps 751 mmHg 84%
    13:00 +7°C° 0.1 mm 6 mps 751 mmHg 85%
    14:00 +7°C° 0.1 mm 6 mps 751 mmHg 85%
    15:00 +7°C° 0.1 mm 6 mps 751 mmHg 86%
    16:00 +7°C° 0.1 mm 6 mps 751 mmHg 87%
    17:00 +5°C° 0.1 mm 6 mps 751 mmHg 88%
    18:00 +5°C° 0.1 mm 6 mps 751 mmHg 89%
    19:00 +5°C° 0.1 mm 6 mps 751 mmHg 90%
    20:00 +5°C° 0.1 mm 6 mps 752 mmHg 90%
    21:00 +5°C° 0.1 mm 6 mps 752 mmHg 91%
    22:00 +5°C° 0.1 mm 6 mps 752 mmHg 90%
    23:00 +5°C° 0.1 mm 6 mps 752 mmHg 90%

    Day after tomorrow, 20 January, Sunday

    Time Temperature Precipitation Wind Pressure Humidity
    00:00 +6°C° 0.1 mm 5 mps 753 mmHg 89%
    01:00 +6°C° 0 mm 5 mps 753 mmHg 89%
    02:00 +5°C° 0 mm 5 mps 753 mmHg 88%
    03:00 +5°C° 0 mm 5 mps 754 mmHg 88%
    04:00 +5°C° 0 mm 5 mps 754 mmHg 88%
    05:00 +4°C° 0 mm 4 mps 755 mmHg 89%
    06:00 +3°C° 0 mm 4 mps 755 mmHg 89%
    07:00 +3°C° 0 mm 4 mps 756 mmHg 90%
    08:00 +3°C° 0 mm 4 mps 757 mmHg 90%
    09:00 +1°C° 0 mm 4 mps 757 mmHg 91%
    10:00 +3°C° 0 mm 4 mps 758 mmHg 87%
    11:00 +4°C° 0 mm 4 mps 759 mmHg 82%
    12:00 +5°C° 0 mm 4 mps 759 mmHg 78%
    13:00 +5°C° 0 mm 4 mps 759 mmHg 78%
    14:00 +5°C° 0 mm 4 mps 760 mmHg 78%
    15:00 +5°C° 0 mm 4 mps 760 mmHg 78%
    16:00 +5°C° 0 mm 5 mps 761 mmHg 81%
    17:00 +3°C° 0 mm 5 mps 761 mmHg 85%
    18:00 +2°C° 0 mm 5 mps 762 mmHg 88%
    19:00 +2°C° 0 mm 5 mps 763 mmHg 88%
    20:00 +2°C° 0 mm 5 mps 763 mmHg 87%
    21:00 +2°C° 0 mm 5 mps 764 mmHg 87%
    22:00 +1°C° 0 mm 4 mps 764 mmHg 89%
    23:00 +1°C° 0 mm 4 mps 765 mmHg 91%

    21 January, Monday

    Time Temperature Precipitation Wind Pressure Humidity
    00:00 0°C° 0 mm 4 mps 765 mmHg 93%
    01:00 0°C° 0 mm 4 mps 765 mmHg 93%
    02:00 0°C° 0 mm 4 mps 765 mmHg 93%
    03:00 +1°C° 0 mm 3 mps 766 mmHg 93%
    04:00 0°C° 0 mm 3 mps 766 mmHg 93%
    05:00 0°C° 0 mm 3 mps 766 mmHg 93%
    06:00 0°C° 0 mm 3 mps 766 mmHg 93%
    07:00 0°C° 0 mm 3 mps 766 mmHg 92%
    08:00 +1°C° 0 mm 3 mps 767 mmHg 92%
    09:00 +1°C° 0 mm 3 mps 767 mmHg 91%
    10:00 +3°C° 0 mm 2 mps 767 mmHg 87%
    11:00 +4°C° 0 mm 2 mps 767 mmHg 83%
    12:00 +5°C° 0 mm 2 mps 767 mmHg 79%
    13:00 +5°C° 0 mm 2 mps 766 mmHg 80%
    14:00 +4°C° 0 mm 3 mps 765 mmHg 80%
    15:00 +4°C° 0 mm 4 mps 765 mmHg 81%
    16:00 +3°C° 0 mm 5 mps 764 mmHg 81%
    17:00 +3°C° 0 mm 5 mps 764 mmHg 81%
    18:00 +2°C° 0 mm 6 mps 763 mmHg 81%
    19:00 +3°C° 0 mm 7 mps 762 mmHg 79%
    20:00 +4°C° 0 mm 8 mps 761 mmHg 76%
    21:00 +3°C° 0 mm 9 mps 760 mmHg 74%
    22:00 +5°C° 0.5 mm 10 mps 759 mmHg 77%
    23:00 +4°C° 0.5 mm 12 mps 757 mmHg 81%

    22 January, Tuesday

    Time Temperature Precipitation Wind Pressure Humidity
    00:00 +4°C° 0.5 mm 13 mps 756 mmHg 84%
    01:00 +4°C° 1.7 mm 12 mps 755 mmHg 82%
    02:00 +3°C° 1.7 mm 11 mps 754 mmHg 80%
    03:00 +3°C° 1.7 mm 10 mps 753 mmHg 78%
    04:00 +2°C° 0 mm 10 mps 752 mmHg 77%
    05:00 +1°C° 0 mm 9 mps 752 mmHg 76%
    06:00 0°C° 0 mm 9 mps 752 mmHg 75%
    07:00 0°C° 0 mm 8 mps 752 mmHg 73%
    08:00 0°C° 0 mm 8 mps 752 mmHg 72%
    09:00 0°C° 0 mm 8 mps 752 mmHg 70%
    10:00 +1°C° 0.1 mm 9 mps 751 mmHg 67%
    11:00 +2°C° 0.1 mm 10 mps 751 mmHg 65%
    12:00 +2°C° 0.1 mm 11 mps 750 mmHg 62%
    13:00 +2°C° 0 mm 11 mps 749 mmHg 62%
    14:00 +2°C° 0 mm 10 mps 749 mmHg 62%
    15:00 +2°C° 0 mm 10 mps 748 mmHg 62%
    16:00 +1°C° 0 mm 10 mps 748 mmHg 65%
    17:00 0°C° 0 mm 10 mps 748 mmHg 68%
    18:00 0°C° 0 mm 9 mps 748 mmHg 71%
    19:00 0°C° 0 mm 9 mps 748 mmHg 71%
    20:00 -1°C° 0 mm 9 mps 748 mmHg 71%
    21:00 -1°C° 0 mm 9 mps 747 mmHg 71%
    22:00 -1°C° 0 mm 9 mps 747 mmHg 72%
    23:00 -1°C° 0 mm 9 mps 747 mmHg 73%

    23 January, Wednesday

    Time Temperature Precipitation Wind Pressure Humidity
    00:00 -1°C° 0 mm 8 mps 746 mmHg 74%
    01:00 -1°C° 0 mm 8 mps 746 mmHg 75%
    02:00 -1°C° 0 mm 8 mps 745 mmHg 75%
    03:00 -1°C° 0 mm 8 mps 745 mmHg 75%
    04:00 -1°C° 0 mm 8 mps 744 mmHg 76%
    05:00 -1°C° 0 mm 8 mps 744 mmHg 76%
    06:00 -1°C° 0 mm 8 mps 743 mmHg 76%
    07:00 -1°C° 0 mm 8 mps 743 mmHg 75%
    08:00 -1°C° 0 mm 8 mps 743 mmHg 73%
    09:00 -1°C° 0 mm 8 mps 743 mmHg 72%
    10:00 0°C° 0.2 mm 9 mps 743 mmHg 70%
    11:00 +1°C° 0.2 mm 9 mps 742 mmHg 69%
    12:00 +2°C° 0.2 mm 10 mps 742 mmHg 68%
    13:00 +1°C° 0.3 mm 10 mps 741 mmHg 71%
    14:00 +1°C° 0.3 mm 9 mps 741 mmHg 75%
    15:00 +1°C° 0.3 mm 9 mps 741 mmHg 79%
    16:00 0°C° 0.1 mm 10 mps 742 mmHg 79%
    17:00 -2°C° 0.1 mm 11 mps 743 mmHg 79%
    18:00 -2°C° 0.1 mm 12 mps 744 mmHg 79%
    19:00 -2°C° 0 mm 12 mps 745 mmHg 77%
    20:00 -2°C° 0 mm 12 mps 746 mmHg 75%
    21:00 -2°C° 0 mm 12 mps 747 mmHg 73%
    22:00 -2°C° 0 mm 11 mps 747 mmHg 74%
    23:00 -2°C° 0 mm 10 mps 747 mmHg 75%
    Show more